Weather History for Prince Rupert, BC

Change the Weather History Date:

Wednesday, October 24, 2012

  Actual Average Record
Temperature  
Mean Temperature 36 °F -  
Max Temperature 44 °F 48 °F 62 °F (1998)
Min Temperature 28 °F 38 °F 28 °F (2012)
Degree Days  
Heating Degree Days 29    
Moisture  
Dew Point 21 °F    
Average Humidity 56    
Maximum Humidity 86    
Minimum Humidity 29    
Precipitation  
Precipitation 0.00 in - - ()
Sea Level Pressure  
Sea Level Pressure 30.08 in    
Wind  
Wind Speed 5 mph ()    
Max Wind Speed 10 mph    
Max Gust Speed -    
Visibility 9.0 miles    
Events      
Averages and records for this station are not official NWS values.
T = Trace of Precipitation, MM = Missing Value Source: Averaged Metar Reports

Daily Weather History Graph

Daily Weather History Graph

Search for Another Location

Airport:

Trip Planner

Search our weather history database for the weather conditions in past years. The results will help you decide how hot, cold, wet, or windy it might be!

Date:

Astronomy

Oct. 24, 2012 Rise Set
Actual Time 8:28 AM PDT 6:22 PM PDT
Civil Twilight 7:51 AM PDT 6:58 PM PDT
Nautical Twilight 7:10 AM PDT 7:40 PM PDT
Astronomical Twilight 6:29 AM PDT 8:21 PM PDT
Moon 4:17 PM PDT (10/24) 2:48 AM PDT (10/24)
Length of Visible Light 11h 06m
Length of Day
9h 53m
Waxing Gibbous, 77% of the Moon is Illuminated
Oct 24
Waxing Gibbous
Oct 29
Full
Nov 6
Last Quarter
Nov 13
New
Nov 20
First Quarter

Hourly Weather History & Observations

Time (PDT) Temp. Windchill Dew Point Humidity Pressure Visibility Wind Dir Wind Speed Gust Speed Precip Events Conditions
12:00 AM 35.6 °F 30.7 °F 23.0 °F 60% 29.97 in 9.0 mi ENE 5.8 mph - N/A   Clear
1:00 AM 32.0 °F 27.5 °F 23.0 °F 69% 29.98 in 9.0 mi NE 4.6 mph - N/A   Clear
3:00 AM 28.4 °F 23.3 °F 23.0 °F 80% 30.00 in 9.0 mi ENE 4.6 mph - N/A   Clear
4:00 AM 28.4 °F 22.2 °F 24.8 °F 86% 30.01 in 9.0 mi ENE 5.8 mph - N/A   Clear
7:00 AM 32.0 °F 26.4 °F 24.8 °F 75% 30.03 in 9.0 mi ENE 5.8 mph - N/A   Clear
8:00 AM 28.4 °F 22.2 °F 24.8 °F 86% 30.03 in 9.0 mi ENE 5.8 mph - N/A   Clear
9:00 AM 32.0 °F 26.4 °F 24.8 °F 75% 30.04 in 9.0 mi ENE 5.8 mph - N/A   Clear
10:00 AM 33.8 °F 28.6 °F 24.8 °F 70% 30.06 in 9.0 mi NE 5.8 mph - N/A   Clear
11:00 AM 41.0 °F 36.4 °F 17.6 °F 39% 30.06 in 9.0 mi ENE 6.9 mph - N/A   Clear
12:00 PM 42.8 °F 39.3 °F 14.0 °F 31% 30.06 in 9.0 mi East 5.8 mph - N/A   Clear
1:00 PM 44.6 °F 40.7 °F 14.0 °F 29% 30.07 in 9.0 mi ENE 6.9 mph - N/A   Clear
3:00 PM 44.6 °F 40.7 °F 19.4 °F 37% 30.10 in 9.0 mi West 6.9 mph - N/A   Clear
4:00 PM 44.6 °F 42.2 °F 19.4 °F 37% 30.11 in 9.0 mi NW 4.6 mph - N/A   Clear
5:00 PM 44.6 °F 41.4 °F 17.6 °F 34% 30.12 in 9.0 mi NNW 5.8 mph - N/A   Clear
6:00 PM 42.8 °F 40.1 °F 17.6 °F 36% 30.13 in 9.0 mi NE 4.6 mph - N/A   Clear
7:00 PM 35.6 °F 30.7 °F 23.0 °F 60% 30.15 in 9.0 mi ENE 5.8 mph - N/A   Clear
9:00 PM 35.6 °F 30.7 °F 24.8 °F 65% 30.17 in 9.0 mi East 5.8 mph - N/A   Clear
10:00 PM 39.2 °F 32.5 °F 21.2 °F 49% 30.19 in 9.0 mi East 10.4 mph - N/A   Clear
11:00 PM 37.4 °F 33.8 °F 17.6 °F 45% 30.20 in 9.0 mi ENE 4.6 mph - N/A   Clear